Retour au catalogue

THOR AGENA B DEB

ActifUNKNOWN
NORAD 2092·DEBRIS·🇺🇸 United States

Lancé Nov 29, 1965 depuis Vandenberg Space Force Base

Loading…

Prochains Passages (prochaines 24 heures)

TLE

FraisSource: Space-Track

Époque: Sep 14, 2026, 12:32 UTC

1 02092U 65098H   26257.52227998  .00000569  00000-0  18914-3 0  9993
2 02092  79.8613 284.4306 1295026 282.9554  63.0315 12.35206144691457

Suivez THOR AGENA B DEB en temps réel avec AllMySat

Download on the App Store